Location: Cahas Mountain Overlook
(37.0833°N, 80.1000°W)
Time: 01:22:53
(UTC-05:00)

A-11 Canister half - Pass Details

Date: 06 December 2023
Orbit: 1512 x 1687 km, 47.2° (Epoch: 01 March)

Event Time Altitude Azimuth Distance (km) Brightness Sun altitude
Exits shadow 02:44:55 27° 51° (NE) 2,770 10.5 -53.9°
Drops below altitude 10° 02:49:17 10° 67° (ENE) 3,925 11.5 -53.1°
Sets 02:52:41 0° 73° (ENE) 4,927 12.2 -52.4°
